sat.trackr.live / text

‹ back to catalog

STARLINK-35345

NORAD 65833 · 2025-221L

PAYLOAD ACTIVE UNKNOWN

§ Identity

Operator
Country
US
Launch date
2025-09-29
Launch site
AFWTR
Launch vehicle
Mass (kg)
RCS (m²)

Purposes: comms

External: N2YO · Heavens-Above · Gunter

§ Orbital elements

Epoch: 2026-05-25T00:45:27.157248Z

Period
94.10 min
Inclination
53.1579°
Eccentricity
0.0001168
Mean motion
15.30213026 rev/d
Perigee alt
474.4 km
Apogee alt
476.0 km
Semi-major
6,853.3 km
B*
5.8432e-4
RAAN
93.5993°
Arg perigee
101.2574°
Mean anomaly
258.8558°
Rev number
3,777

§ Raw data

STARLINK-353451 65833U 25221L   26145.03156432  .00016993  00000+0  58432-3 0  99912 65833  53.1579  93.5993 0001168 101.2574 258.8558 15.30213026 37779

JSON: /api/v1/satellites/65833 · /tle

For live sub-satellite position, see the globe view (requires WebGL).

§ Visibility from observer

Set your observer location to see the next 7 days of passes ≥ 10°. The values pass through the URL so the page stays shareable.

No JS? Fill the form by hand. The geolocation button needs JavaScript.